• In Netherlands
  • List of Countries
  • For 7 days
  • Water Temperature
  • Satellite Maps
  • Weather Map
  • Weather Widgets
  • user-avatar
    Login

    Hourly Weather Benguela

    Today, 21 January, Saturday

    Time Temperature Precipitation Wind Pressure Humidity
    00:00 +29°C° 0 mm 2 mps 757 mmHg 71%
    01:00 +28°C° 0 mm 1 mps 757 mmHg 73%
    02:00 +28°C° 0 mm 1 mps 757 mmHg 75%
    03:00 +27°C° 0 mm 1 mps 757 mmHg 77%
    04:00 +27°C° 0 mm 1 mps 757 mmHg 79%
    05:00 +27°C° 0 mm 1 mps 757 mmHg 77%
    06:00 +28°C° 0 mm 1 mps 757 mmHg 76%
    07:00 +29°C° 0 mm 1 mps 758 mmHg 68%
    08:00 +31°C° 0 mm 1 mps 758 mmHg 59%
    09:00 +34°C° 0 mm 2 mps 758 mmHg 50%
    10:00 +35°C° 0 mm 2 mps 758 mmHg 41%
    11:00 +36°C° 0 mm 3 mps 757 mmHg 39%
    12:00 +37°C° 0 mm 4 mps 757 mmHg 37%
    13:00 +39°C° 0 mm 5 mps 757 mmHg 36%
    14:00 +39°C° 0 mm 5 mps 756 mmHg 38%
    15:00 +37°C° 0 mm 5 mps 756 mmHg 40%
    16:00 +37°C° 0 mm 5 mps 755 mmHg 42%
    17:00 +35°C° 0 mm 5 mps 756 mmHg 49%
    18:00 +33°C° 0 mm 4 mps 756 mmHg 56%
    19:00 +30°C° 0 mm 4 mps 757 mmHg 64%
    20:00 +29°C° 0 mm 4 mps 757 mmHg 69%
    21:00 +28°C° 0 mm 3 mps 758 mmHg 73%
    22:00 +28°C° 0 mm 3 mps 759 mmHg 78%
    23:00 +27°C° 0 mm 2 mps 758 mmHg 79%

    Tomorrow, 22 January, Sunday

    Time Temperature Precipitation Wind Pressure Humidity
    00:00 +27°C° 0 mm 2 mps 758 mmHg 80%
    01:00 +27°C° 0 mm 2 mps 758 mmHg 81%
    02:00 +26°C° 0 mm 2 mps 758 mmHg 82%
    03:00 +26°C° 0 mm 2 mps 757 mmHg 83%
    04:00 +26°C° 0 mm 2 mps 757 mmHg 84%
    05:00 +26°C° 0 mm 1 mps 757 mmHg 82%
    06:00 +27°C° 0 mm 1 mps 758 mmHg 80%
    07:00 +27°C° 0 mm 1 mps 758 mmHg 78%
    08:00 +29°C° 0 mm 1 mps 758 mmHg 67%
    09:00 +31°C° 0 mm 2 mps 758 mmHg 56%
    10:00 +34°C° 0 mm 2 mps 758 mmHg 46%
    11:00 +35°C° 0 mm 3 mps 758 mmHg 45%
    12:00 +36°C° 0 mm 4 mps 757 mmHg 43%
    13:00 +37°C° 0 mm 5 mps 757 mmHg 42%
    14:00 +36°C° 0 mm 5 mps 757 mmHg 45%
    15:00 +36°C° 0 mm 5 mps 756 mmHg 49%
    16:00 +35°C° 0 mm 5 mps 756 mmHg 52%
    17:00 +33°C° 0 mm 4 mps 756 mmHg 60%
    18:00 +32°C° 0 mm 4 mps 757 mmHg 68%
    19:00 +29°C° 0 mm 3 mps 757 mmHg 76%
    20:00 +28°C° 0 mm 3 mps 758 mmHg 79%
    21:00 +28°C° 0 mm 2 mps 758 mmHg 81%
    22:00 +27°C° 0 mm 2 mps 759 mmHg 84%
    23:00 +27°C° 0 mm 2 mps 759 mmHg 85%

    Day after tomorrow, 23 January, Monday

    Time Temperature Precipitation Wind Pressure Humidity
    00:00 +27°C° 0 mm 1 mps 759 mmHg 86%
    01:00 +27°C° 0 mm 1 mps 759 mmHg 87%
    02:00 +27°C° 0 mm 1 mps 758 mmHg 88%
    03:00 +26°C° 0 mm 1 mps 758 mmHg 88%
    04:00 +26°C° 0 mm 1 mps 758 mmHg 89%
    05:00 +26°C° 0 mm 1 mps 758 mmHg 87%
    06:00 +27°C° 0 mm 1 mps 758 mmHg 85%
    07:00 +27°C° 0 mm 1 mps 759 mmHg 83%
    08:00 +29°C° 0 mm 1 mps 759 mmHg 73%
    09:00 +31°C° 0 mm 1 mps 759 mmHg 62%
    10:00 +33°C° 0 mm 1 mps 759 mmHg 51%
    11:00 +35°C° 0 mm 3 mps 758 mmHg 49%
    12:00 +36°C° 0 mm 4 mps 757 mmHg 47%
    13:00 +37°C° 0 mm 5 mps 757 mmHg 44%
    14:00 +36°C° 0 mm 5 mps 756 mmHg 50%
    15:00 +35°C° 0 mm 5 mps 756 mmHg 56%
    16:00 +34°C° 0 mm 5 mps 755 mmHg 62%
    17:00 +32°C° 0.1 mm 5 mps 756 mmHg 68%
    18:00 +30°C° 0.1 mm 4 mps 757 mmHg 74%
    19:00 +29°C° 0.1 mm 3 mps 758 mmHg 80%
    20:00 +29°C° 0 mm 3 mps 758 mmHg 81%
    21:00 +28°C° 0 mm 2 mps 759 mmHg 82%
    22:00 +28°C° 0 mm 2 mps 760 mmHg 83%
    23:00 +28°C° 0.1 mm 2 mps 759 mmHg 84%

    24 January, Tuesday

    Time Temperature Precipitation Wind Pressure Humidity
    00:00 +28°C° 0.1 mm 2 mps 759 mmHg 84%
    01:00 +28°C° 0.1 mm 2 mps 759 mmHg 85%
    02:00 +27°C° 0.5 mm 2 mps 759 mmHg 86%
    03:00 +27°C° 0.5 mm 2 mps 758 mmHg 87%
    04:00 +27°C° 0.5 mm 3 mps 758 mmHg 88%
    05:00 +27°C° 1 mm 2 mps 759 mmHg 88%
    06:00 +27°C° 1 mm 2 mps 759 mmHg 88%
    07:00 +27°C° 1 mm 2 mps 760 mmHg 88%
    08:00 +27°C° 1 mm 2 mps 760 mmHg 87%
    09:00 +27°C° 1 mm 2 mps 760 mmHg 85%
    10:00 +28°C° 1 mm 2 mps 761 mmHg 84%
    11:00 +28°C° 0.5 mm 2 mps 760 mmHg 81%
    12:00 +29°C° 0.5 mm 2 mps 760 mmHg 79%
    13:00 +29°C° 0.5 mm 2 mps 759 mmHg 76%
    14:00 +29°C° 0.1 mm 2 mps 759 mmHg 74%
    15:00 +30°C° 0.1 mm 2 mps 758 mmHg 72%
    16:00 +30°C° 0.1 mm 2 mps 758 mmHg 70%
    17:00 +30°C° 0 mm 2 mps 758 mmHg 74%
    18:00 +29°C° 0 mm 2 mps 758 mmHg 77%
    19:00 +28°C° 0 mm 1 mps 759 mmHg 81%
    20:00 +28°C° 0 mm 1 mps 759 mmHg 83%
    21:00 +28°C° 0 mm 2 mps 759 mmHg 85%
    22:00 +27°C° 0 mm 2 mps 760 mmHg 87%
    23:00 +27°C° 0 mm 2 mps 759 mmHg 88%

    25 January, Wednesday

    Time Temperature Precipitation Wind Pressure Humidity
    00:00 +27°C° 0 mm 2 mps 759 mmHg 89%
    01:00 +26°C° 0 mm 2 mps 758 mmHg 90%
    02:00 +26°C° 0 mm 2 mps 758 mmHg 90%
    03:00 +26°C° 0 mm 2 mps 758 mmHg 91%
    04:00 +26°C° 0 mm 2 mps 758 mmHg 92%
    05:00 +26°C° 0 mm 2 mps 758 mmHg 89%
    06:00 +27°C° 0 mm 1 mps 759 mmHg 87%
    07:00 +27°C° 0 mm 1 mps 759 mmHg 84%
    08:00 +29°C° 0 mm 1 mps 759 mmHg 75%
    09:00 +31°C° 0 mm 1 mps 760 mmHg 66%
    10:00 +34°C° 0 mm 2 mps 760 mmHg 56%
    11:00 +35°C° 0 mm 3 mps 759 mmHg 52%
    12:00 +36°C° 0 mm 4 mps 759 mmHg 47%
    13:00 +37°C° 0 mm 5 mps 758 mmHg 43%
    14:00 +37°C° 0 mm 5 mps 758 mmHg 45%
    15:00 +36°C° 0 mm 6 mps 757 mmHg 48%
    16:00 +36°C° 0 mm 6 mps 757 mmHg 50%
    17:00 +34°C° 0 mm 5 mps 757 mmHg 58%
    18:00 +32°C° 0 mm 5 mps 758 mmHg 66%
    19:00 +29°C° 0 mm 4 mps 758 mmHg 74%
    20:00 +28°C° 0 mm 4 mps 759 mmHg 77%
    21:00 +28°C° 0 mm 3 mps 759 mmHg 81%
    22:00 +27°C° 0 mm 3 mps 760 mmHg 84%
    23:00 +26°C° 0 mm 2 mps 759 mmHg 85%

    26 January, Thursday

    Time Temperature Precipitation Wind Pressure Humidity
    00:00 +26°C° 0 mm 2 mps 759 mmHg 86%
    01:00 +26°C° 0 mm 1 mps 759 mmHg 88%
    02:00 +26°C° 0 mm 1 mps 759 mmHg 89%
    03:00 +25°C° 0 mm 1 mps 759 mmHg 90%
    04:00 +23°C° 0 mm 0 mps 759 mmHg 91%
    05:00 +24°C° 0 mm 0 mps 759 mmHg 88%
    06:00 +24°C° 0 mm 0 mps 759 mmHg 86%
    07:00 +25°C° 0 mm 0 mps 760 mmHg 83%
    08:00 +29°C° 0 mm 1 mps 760 mmHg 72%
    09:00 +31°C° 0 mm 1 mps 760 mmHg 60%
    10:00 +34°C° 0 mm 2 mps 759 mmHg 49%
    11:00 +35°C° 0 mm 3 mps 759 mmHg 46%
    12:00 +36°C° 0 mm 4 mps 758 mmHg 43%
    13:00 +37°C° 0 mm 5 mps 758 mmHg 41%
    14:00 +37°C° 0 mm 5 mps 757 mmHg 43%
    15:00 +36°C° 0 mm 5 mps 757 mmHg 46%
    16:00 +36°C° 0 mm 5 mps 757 mmHg 48%
    17:00 +34°C° 0 mm 5 mps 757 mmHg 54%
    18:00 +32°C° 0 mm 5 mps 757 mmHg 60%
    19:00 +30°C° 0 mm 5 mps 758 mmHg 66%
    20:00 +29°C° 0 mm 4 mps 758 mmHg 69%
    21:00 +28°C° 0 mm 4 mps 759 mmHg 72%
    22:00 +27°C° 0 mm 3 mps 759 mmHg 75%
    23:00 +27°C° 0 mm 3 mps 759 mmHg 76%
    Show more